Weather History for EBOS - June, 2013

Change the Weather History Date:

Wednesday, June 26, 2013

  Actual Average Record
Temperature  
Mean Temperature 52 °F -  
Max Temperature 64 °F 67 °F 89 °F (2001)
Min Temperature 41 °F 54 °F 41 °F (2013)
Degree Days  
Heating Degree Days 12    
Growing Degree Days 2 (Base 50)    
Moisture  
Dew Point 47 °F    
Average Humidity 73    
Maximum Humidity 94    
Minimum Humidity 33    
Precipitation  
Precipitation 0.16 in - - ()
Sea Level Pressure  
Sea Level Pressure 30.40 in    
Wind  
Wind Speed 5 mph ()    
Max Wind Speed 21 mph    
Max Gust Speed -    
Visibility 6.7 miles    
Events Fog , Rain    
Averages and records for this station are not official NWS values.
T = Trace of Precipitation, MM = Missing Value Source: Averaged Metar Reports

Daily Weather History Graph

Daily Weather History Graph

Search for Another Location

Airport or City:

Trip Planner

Search our weather history database for the weather conditions in past years. The results will help you decide how hot, cold, wet, or windy it might be!

Date:

Astronomy

Jun. 26, 2013 Rise Set
Actual Time 5:34 AM CEST 10:08 PM CEST
Civil Twilight 4:47 AM CEST 10:55 PM CEST
Nautical Twilight 3:35 AM CEST 12:06 AM CEST
Astronomical Twilight 2:23 AM CEST 1:19 AM CEST
Moon 11:50 PM CEST (6/26) 9:34 AM CEST (6/26)
Length of Visible Light 18h 07m
Length of Day
16h 33m
Waning Gibbous, 87% of the Moon is Illuminated
Jun 26
Waning Gibbous
Jun 30
Last Quarter
Jul 8
New
Jul 16
First Quarter
Jul 22
Full

Hourly Weather History & Observations

Time (CEST) Temp. Windchill Dew Point Humidity Pressure Visibility Wind Dir Wind Speed Gust Speed Precip Events Conditions
12:20 AM 51.8 °F - 46.4 °F 82% 30.42 in - WNW 4.6 mph - N/A   Clear
12:50 AM 51.8 °F - 46.4 °F 82% 30.42 in - WNW 5.8 mph - N/A   Clear
1:20 AM 51.8 °F - 46.4 °F 82% 30.42 in - NW 3.5 mph - N/A   Clear
1:50 AM 50.0 °F - 44.6 °F 82% 30.42 in - NNW 2.3 mph - N/A   Clear
2:00 AM 50 °F - 45 °F 78% 30.45 in 12 mi NNW 2.2 mph - -  
2:20 AM 50.0 °F - 46.4 °F 87% 30.42 in - NNW 2.3 mph - N/A   Clear
2:50 AM 46.4 °F - 44.6 °F 93% 30.42 in 5.6 mi Variable 1.2 mph - N/A   Unknown
3:20 AM 46.4 °F - 42.8 °F 87% 30.42 in 5.6 mi Variable 1.2 mph - N/A   Unknown
3:50 AM 44.6 °F 43.1 °F 41.0 °F 87% 30.42 in 5.6 mi SW 3.5 mph - N/A   Unknown
4:20 AM 41.0 °F - 39.2 °F 93% 30.42 in 5.0 mi Variable 1.2 mph - N/A Fog Fog
4:50 AM 44.6 °F - 41.0 °F 87% 30.42 in 4.3 mi SSW 1.2 mph - N/A Fog Fog
5:00 AM 44 °F - 42 °F 88% 30.43 in 4 mi Calm Calm - - Fog Patches of Fog
5:20 AM 44.6 °F - 42.8 °F 93% 30.42 in 4.3 mi Variable 1.2 mph - N/A Fog Shallow Fog
5:50 AM 44.6 °F - 41.0 °F 87% 30.42 in 2.5 mi Variable 1.2 mph - N/A Fog Shallow Fog
6:20 AM 42.8 °F 41.1 °F 39.2 °F 87% 30.42 in 2.8 mi WSW 3.5 mph - N/A Fog Shallow Fog
6:50 AM 44.6 °F - 41.0 °F 87% 30.42 in 3.1 mi SW 2.3 mph - N/A   Mist
7:20 AM 46.4 °F - 42.8 °F 87% 30.42 in 3.7 mi WSW 2.3 mph - N/A   Unknown
7:50 AM 50.0 °F - 48.2 °F 94% 30.42 in 3.7 mi Variable 1.2 mph - N/A   Unknown
8:00 AM 51 °F - 47 °F 83% 30.43 in 4 mi SW 2.2 mph - -   Scattered Clouds
8:20 AM 53.6 °F - 50.0 °F 88% 30.42 in - West 6.9 mph - N/A   Clear
8:50 AM 57.2 °F - 50.0 °F 77% 30.42 in - West 5.8 mph - N/A   Clear
9:20 AM 59.0 °F - 50.0 °F 72% 30.42 in - WNW 8.1 mph - N/A   Clear
9:50 AM 59.0 °F - 50.0 °F 72% 30.42 in - WNW 8.1 mph - N/A   Clear
10:20 AM 60.8 °F - 48.2 °F 63% 30.42 in - WNW 6.9 mph - N/A   Clear
10:50 AM 60.8 °F - 50.0 °F 68% 30.42 in - West 8.1 mph - N/A   Clear
11:00 AM 61 °F - 49 °F 56% 30.44 in 16 mi West 6.7 mph - -   Scattered Clouds
11:20 AM 60.8 °F - 46.4 °F 59% 30.42 in 6.2 mi West 8.1 mph - N/A   Partly Cloudy
11:50 AM 60.8 °F - 48.2 °F 63% 30.42 in 6.2 mi West 6.9 mph - N/A   Partly Cloudy
12:20 PM 60.8 °F - 46.4 °F 59% 30.42 in 6.2 mi WNW 5.8 mph - N/A   Partly Cloudy
12:50 PM 62.6 °F - 48.2 °F 59% 30.42 in 6.2 mi West 4.6 mph - N/A   Partly Cloudy
1:20 PM 64.4 °F - 44.6 °F 49% 30.42 in 6.2 mi West 5.8 mph - N/A   Partly Cloudy
1:50 PM 64.4 °F - 42.8 °F 45% 30.42 in 6.2 mi West 8.1 mph - N/A   Partly Cloudy
2:00 PM 64 °F - 42 °F 33% 30.44 in 16 mi West 8.9 mph - -   Scattered Clouds
2:20 PM 62.6 °F - 44.6 °F 52% 30.42 in 6.2 mi West 8.1 mph - N/A   Partly Cloudy
2:50 PM 62.6 °F - 44.6 °F 52% 30.42 in 6.2 mi West 10.4 mph - N/A   Partly Cloudy
3:20 PM 64.4 °F - 48.2 °F 56% 30.42 in 6.2 mi West 11.5 mph - N/A   Partly Cloudy
3:50 PM 62.6 °F - 50.0 °F 63% 30.42 in 6.2 mi West 13.8 mph - N/A   Partly Cloudy
4:20 PM 60.8 °F - 50.0 °F 68% 30.42 in 6.2 mi WNW 12.7 mph - N/A   Partly Cloudy
4:50 PM 60.8 °F - 51.8 °F 72% 30.42 in 6.2 mi West 12.7 mph - N/A   Partly Cloudy
5:00 PM 61 °F - 51 °F 62% 30.43 in 16 mi West 11.2 mph - -   Scattered Clouds
5:20 PM 62.6 °F - 51.8 °F 68% 30.39 in 6.2 mi West 10.4 mph - N/A   Partly Cloudy
5:50 PM 62.6 °F - 50.0 °F 63% 30.39 in 6.2 mi West 10.4 mph - N/A   Partly Cloudy
6:20 PM 60.8 °F - 50.0 °F 68% 30.39 in 6.2 mi West 10.4 mph - N/A   Partly Cloudy
6:50 PM 59.0 °F - 50.0 °F 72% 30.39 in 6.2 mi West 11.5 mph - N/A   Partly Cloudy
7:20 PM 60.8 °F - 50.0 °F 68% 30.36 in 6.2 mi West 10.4 mph - N/A   Partly Cloudy
7:50 PM 60.8 °F - 50.0 °F 68% 30.36 in 6.2 mi West 11.5 mph - N/A   Partly Cloudy
8:00 PM 60 °F - 51 °F 63% 30.38 in 16 mi West 11.2 mph - -   Scattered Clouds
8:20 PM 59.0 °F - 50.0 °F 72% 30.36 in 6.2 mi West 11.5 mph - N/A   Partly Cloudy
8:50 PM 60.8 °F - 50.0 °F 68% 30.33 in 6.2 mi WSW 10.4 mph - N/A   Partly Cloudy
9:20 PM 60.8 °F - 50.0 °F 68% 30.33 in - WSW 11.5 mph - N/A   Clear
9:50 PM 59.0 °F - 50.0 °F 72% 30.33 in - WSW 8.1 mph - N/A   Clear
10:20 PM 57.2 °F - 51.8 °F 82% 30.30 in - SW 8.1 mph - N/A   Clear
10:50 PM 57.2 °F - 50.0 °F 77% 30.30 in - SW 8.1 mph - N/A   Clear
11:00 PM 58 °F - 50 °F 68% 30.32 in 16 mi SW 8.9 mph - -   Partly Cloudy
11:20 PM 57.2 °F - 53.6 °F 88% 30.33 in 3.1 mi WNW 20.7 mph - N/A Rain Rain Showers
11:50 PM 55.4 °F - 51.8 °F 88% 30.33 in 3.1 mi North 9.2 mph - N/A Rain Rain Showers